Regional Weather Roundup
Issued by NWS

Home | Current Version | Previous Version | Text Only | Print | Product List | Glossary On
Versions: 1 2 3 4 5 6 7 8 9 10 11 12 13 14 15 16 17 18 19 20 21 22 23 24 25 26 27 28 29 30 31 32 33 34 35 36 37 38 39 40 41 42 43 44 45 46 47 48 49 50
000
ASUS43 KLOT 311100
RWRIL

ILLINOIS REGIONAL WEATHER ROUNDUP
NATIONAL WEATHER SERVICE CHICAGO/ROMEOVILLE IL
600 AM CDT THU JUL 31 2014

NOTE: "FAIR" INDICATES FEW OR NO CLOUDS BELOW 12,000 FEET WITH NO
SIGNIFICANT WEATHER AND/OR OBSTRUCTIONS TO VISIBILITY.

* THESE STATIONS ARE NOT UNDER NWS QUALITY CONTROL. THEY ALSO MAY NOT
  REPORT WEATHER SUCH AS PRECIPITATION OR FOG.

ILZ001-002-007-009-015-016-024-311200-
NORTHWEST ILLINOIS

CITY           SKY/WX    TMP DP  RH WIND       PRES   REMARKS
MOLINE         CLEAR     59  56  89 CALM      30.05S
STERLING*      CLEAR     54  52  94 CALM      30.05S
$$

ILZ003-004-008-010-011-017-018-311200-
NORTH CENTRAL ILLINOIS

CITY           SKY/WX    TMP DP  RH WIND       PRES   REMARKS
ROCKFORD       PTCLDY    57  53  86 S6        30.06R
$$

ILZ005-006-012>014-019>023-311200-
NORTHEAST ILLINOIS

CITY           SKY/WX    TMP DP  RH WIND       PRES   REMARKS
CHICAGO-OHARE  PTCLDY    62  56  80 W6        30.02S
CHICAGO-MIDWAY PTCLDY    63  59  87 SW3       30.03R
AURORA         PTCLDY    55  52  89 CALM      30.05R FOG
LANSING*         N/A     55  54  95 S3        30.04S FOG
JOLIET*        CLEAR     55  54  96 CALM      30.06R FOG
WAUKEGAN       CLOUDY    61  57  87 VRB3      30.01S FOG
DUPAGE AIRPORT CLEAR     59  56  89 CALM      30.03S FOG
WHEELING       MOCLDY    62  58  86 CALM      30.04R
NORTHERLY ISL    N/A     64  58  80 W6          N/A
$$

LMZ740>746-311200-
SOUTHERN LAKE MICHIGAN

STATION/POSITION SKY/WX   TEMP    WIND        PRES    VSBY  WAVE
                          AIR SEA DIR/SP/G                  HT/PER
                          (F)     (DEG/KT/KT) (MB)    (MI)  (FT/S)
SOUTHERN BUOY              62 60  230/ 14/ 14 1015.5S         1/ 3
WAUKEGAN HARBOR            63     260/  9/ 11   N/A
HARRISON CRIB              66     210/ 13/ 14   N/A
BURNHAM HARBOR             64     240/  8       N/A
CALUMET HARBOR             63     220/  5/  7 1015.7R
MICHIGAN CITY              64     160/  9/ 12   N/A
MICHIGAN CITY 6N           65 69  210/ 10/ 12   N/A           1/ 2
ST. JOSEPH                 66 69  200/ 12/ 14   N/A           1/ 2
$$

ILZ025>027-034>036-040-047-049-050-058-095>099-311200-
WEST-CENTRAL ILLINOIS

CITY           SKY/WX    TMP DP  RH WIND       PRES   REMARKS
QUINCY         CLEAR     59  57  93 SW5       30.09R FOG
GALESBURG*     CLEAR     54  53  99 CALM      30.07S FOG
MACOMB*          N/A     55  55  99 W3        30.10R
$$

ILZ028>032-037-038-041>044-048-051>054-059>061-311200-
CENTRAL ILLINOIS

CITY           SKY/WX    TMP DP  RH WIND       PRES   REMARKS
DECATUR        CLEAR     61  56  83 CALM      30.08R
PEORIA         CLEAR     61  56  83 CALM      30.07S
SPRINGFIELD    CLEAR     57  55  93 W5        30.08R
TAYLORVILLE    NOT AVBL
$$

ILZ033-039-045-046-055>057-062-063-311200-
EAST-CENTRAL ILLINOIS

CITY           SKY/WX    TMP DP  RH WIND       PRES   REMARKS
CHAMPAIGN      CLEAR     57  55  93 NW5       30.08R
MATTOON        CLEAR     62  58  86 SW5       30.08R
$$

ILZ079-100>102-311200-
SOUTHWEST ILLINOIS

CITY           SKY/WX    TMP DP  RH WIND       PRES   REMARKS
CAHOKIA*       FOG       59  58  96 CALM      30.08R VSB 3/4
SPARTA*        PTCLDY    55  55 100 CALM      30.09R FOG
$$

ILZ064>066-069>071-074>076-080>082-084>086-088>090-092>094-311200-
SOUTH-CENTRAL ILLINOIS

CITY           SKY/WX    TMP DP  RH WIND       PRES   REMARKS
CARBONDALE     FOG       57  55  93 CALM      30.08S VSB 1/2
MT. VERNON       N/A     55  52  88 CALM      30.10R VSB 3/4
SALEM*         FOG      N/A N/A N/A CALM      30.09R VSB 3/4
$$

ILZ067-068-072-073-078-083-087-091-311200-
SOUTHEAST ILLINOIS

CITY           SKY/WX    TMP DP  RH WIND       PRES   REMARKS
LAWRENCEVILLE  CLEAR     59  58  96 S3        30.09R FOG
HARRISBURG*    FOG       57  57 100 CALM      30.10R VSB<1/4
ROBINSON*      FOG       56  56  97 S3        30.09S VSB 1/2
$$

ABBREVIATIONS USED IN REMARKS
   TC - TEMPERATURE IN CELSIUS
  WCI - WIND CHILL INDEX
   HX - HEAT INDEX
  VSB - VISIBILITY
$$




USA.gov is the U.S. government's official web portal to all federal, state and local government web resources and services.